Location: *
(46.1200°N, 11.2700°E)
Time: 08:33:02
(UTC+00:00)

Cosmos 2333 - Pass Details

Date: 02 March 2021
Orbit: 829 x 866 km, 70.9° (Epoch: 19 April)

Event Time Altitude Azimuth Distance (km) Brightness Sun altitude
Rises 18:43:10 0° 187° (S) 3,369 7.3 -18.1°
Reaches altitude 10° 18:45:39 10° 182° (S) 2,444 6.5 -18.6°
Maximum altitude 18:51:01 49° 109° (ESE) 1,082 4.3 -19.5°
Drops below altitude 10° 18:56:29 10° 36° (NE) 2,484 6.4 -20.4°
Sets 18:59:01 0° 31° (NNE) 3,430 7.2 -20.8°
